Volver al catálogo

STARLINK-37022

ActivoComunicacionesSSO
NORAD 68101·PAYLOAD·🇺🇸 United States

Lanzado Mar 8, 2026 desde Vandenberg Space Force Base

Loading…

Próximos Pases (próximas 24 horas)

TLE

ActualizadoSource: CelesTrak SupGP

Época: Sep 14, 2026, 20:54 UTC

1 68101C 26044A   26257.87131944 -.00009598  00000+0 -29792-3 0  2572
2 68101  97.2851 216.8234 0002010  88.2707 139.7833 15.33446665    19

Sigue STARLINK-37022 en tiempo real con AllMySat

Download on the App Store